Voltar ao catálogo

STARLINK-35127

AtivoComunicaçõesVLEO
NORAD 65639·PAYLOAD·🇺🇸 United States

Lançado Sep 18, 2025 de Cape Canaveral Space Force Station

Loading…

Próximas Passagens (próximas 24 horas)

TLE

AtualizadoSource: CelesTrak SupGP

Época: Sep 14, 2026, 20:53 UTC

1 65639C 25210T   26257.87062500 -.00044215  00000+0 -13062-2 0  2577
2 65639  53.1566 143.9500 0001276  85.1347  60.0248 15.34415815    11

Acompanhe STARLINK-35127 em tempo real com AllMySat

Download on the App Store